Preise (Charter):

Flugzeuge Normalpreis ab 12 h/Jahr -5% ab 20 h/Jahr -8%

Cessna 172 SP

D-E

234,00 € 222,30 € 215,28 €

 

     

Reservierungen können Sie über unser Buchungssystem vornehmen.

Neben unseren Flugzeugen können wir über unser Netzwerk weitere Flugzeuge vermitteln.

Für weitere Informationen füllen Sie bitte das Kontaktformular aus oder wenden sich direkt an:

Christian Sabionski

Tel.:   +49 (0)172 8140311

Flugwetter Augsburg

[source: ADDS]
METAR
EDMA 240950Z 09008KT 9999 BKN009 OVC011 05/03 Q1026 =
TAF EDMA 240800Z 2409/2418 10005KT 9999 OVC010 TEMPO 2409/2412 OVC008 BECMG 2416/2418 4000 BR OVC006
TAF
TAF EDMA 240800Z 2409/2418 10005KT 9999 OVC010 TEMPO 2409/2412 OVC008 BECMG 2416/2418 4000 BR OVC006 =
Cookies erleichtern die Bereitstellung unserer Dienste. Mit der Nutzung unserer Dienste erklären Sie sich damit einverstanden, dass wir Cookies verwenden.
Weitere Informationen Ok